Tracking 19562 objects as of 21-Mar-2019
HD Live streaming from Space Station
objects crossing your sky now

COSMOS 2282

Track COSMOS 2282 now!
COSMOS 2282 is classified as:


NORAD ID: 23168
Int'l Code: 1994-038A
Perigee: 35,720.5 km
Apogee: 35,804.2 km
Inclination: 14.1 °
Period: 1,434.5 minutes
Semi major axis: 42133 km
RCS: 2.417 m2 (large)
Launch date: July 6, 1994
Source: Commonwealth of Independent States (former USSR) (CIS)
Launch site: TYURATAM MISSILE AND SPACE COMPLEX (TTMTR)
aabbcc
Your satellite tracking list
Your tracking list is empty




NASA's NSSDC Master Catalog

Two Line Element Set (TLE):
1 23168U 94038A   19078.37726981 -.00000177 +00000-0 +00000-0 0  9998
2 23168 014.1323 013.5080 0009937 020.3619 179.3654 01.00383943090489
Source of the keplerian elements: AFSPC